Starlink 11595

operational
NORAD ID: 63669 Int'l Des: 2025-085 Owner: SPXS Country: US Constellation: starlink
LEOCIRCULAR

Starlink 11595について

説明を読み込み中...

リアルタイム位置

3D地球を読み込み中...

次回通過

高度履歴

Altitude vs Time

uPlot chart will show altitude changes over time

軌道要素

1 63669U 25085F 25351.50545832 .00206753 00000-0 15691-2 0 9995
2 63669 43.0029 54.0435 0002267 273.4634 86.5974 15.70928788 37966
Epoch: Dec 17, 2025 • Age: 24 hours

現在のステータス

高度 364.1 km
速度 7.69 km/s
衛星直下点 -35.46°S, 9.72°E
打ち上げ日 Apr 28, 2025
運用期間 0.6 years
タイプ internet

技術仕様

分類 Payload
質量 960.00 kg
乾燥質量 910.00 kg
総質量 960.00 kg
長さ 0.30 m
直径 4.10 m
スパン 29.00 m
形状 Box + pan
製造者 SPXS
バスタイプ Starlink V2MD
フェーズステータス In Orbit
所有者/国 SPXS/US

大規模コンステレーション

Loading constellations...